| time (UTC) | temp F | wind direction | speed MPH | gust MPH | rain 1hr in | rain 24hr in | rain mn in | humidity % | barometer mb |
| 20260506090947 | 64 | 312 | 1.0 | 2.0 | 0.00 | 0.00 | 0.00 | 66 | 1007.0 |
| 20260506090445 | 64 | 321 | 3.0 | 5.0 | 0.00 | 0.00 | 0.00 | 65 | 1006.9 |
| 20260506085941 | 64 | 338 | 2.0 | 3.0 | 0.00 | 0.00 | 0.00 | 64 | 1006.6 |
| 20260506085438 | 64 | 171 | 1.0 | 2.0 | 0.00 | 0.00 | 0.00 | 65 | 1006.9 |
| 20260506084934 | 64 | 203 | 1.0 | 1.0 | 0.00 | 0.00 | 0.00 | 64 | 1006.9 |
| 20260506084431 | 63 | 83 | 0.0 | 0.0 | 0.00 | 0.00 | 0.00 | 66 | 1006.8 |
| 20260506083927 | 63 | 237 | 0.0 | 0.0 | 0.00 | 0.00 | 0.00 | 65 | 1006.6 |
| 20260506083425 | 64 | 313 | 1.0 | 2.0 | 0.00 | 0.00 | 0.00 | 65 | 1006.8 |
| 20260506082922 | 64 | 301 | 2.0 | 3.0 | 0.00 | 0.00 | 0.00 | 65 | 1006.8 |
| 20260506082419 | 64 | 49 | 0.0 | 0.0 | 0.00 | 0.00 | 0.00 | 62 | 1006.8 |
| 20260506081914 | 63 | 51 | 0.0 | 0.0 | 0.00 | 0.00 | 0.00 | 67 | 1006.8 |
| 20260506081414 | 63 | 82 | 0.0 | 0.0 | 0.00 | 0.00 | 0.00 | 66 | 1007.1 |
| 20260506080910 | 63 | 335 | 1.0 | 1.0 | 0.00 | 0.00 | 0.00 | 64 | 1007.1 |
| 20260506080407 | 64 | 36 | 0.0 | 1.0 | 0.00 | 0.00 | 0.00 | 65 | 1007.1 |
| 20260506073351 | 65 | 43 | 0.0 | 1.0 | 0.00 | 0.00 | 0.00 | 59 | 1007.1 |
| 20260506072847 | 65 | 78 | 0.0 | 0.0 | 0.00 | 0.00 | 0.00 | 61 | 1007.3 |
| 20260506072345 | 65 | 71 | 2.0 | 3.0 | 0.00 | 0.00 | 0.00 | 58 | 1007.1 |
| 20260506071843 | 66 | 260 | 4.0 | 5.0 | 0.00 | 0.00 | 0.00 | 58 | 1007.0 |
| 20260506071341 | 65 | 331 | 2.0 | 5.0 | 0.00 | 0.00 | 0.00 | 57 | 1007.0 |
| 20260506070837 | 66 | 20 | 2.0 | 2.0 | 0.00 | 0.00 | 0.00 | 57 | 1007.1 |
| 20260506070334 | 66 | 41 | 0.0 | 0.0 | 0.00 | 0.00 | 0.00 | 57 | 1006.9 |
| 20260506062312 | 66 | 248 | 3.0 | 3.0 | 0.00 | 0.00 | 0.00 | 58 | 1007.5 |
| 20260506061808 | 67 | 338 | 1.0 | 2.0 | 0.00 | 0.00 | 0.00 | 57 | 1007.4 |
| 20260506061304 | 67 | 6 | 0.0 | 0.0 | 0.00 | 0.00 | 0.00 | 56 | 1007.8 |
| 20260506060803 | 67 | 346 | 4.0 | 5.0 | 0.00 | 0.00 | 0.00 | 55 | 1007.8 |
| 20260506060301 | 67 | 302 | 2.0 | 6.0 | 0.00 | 0.00 | 0.00 | 57 | 1007.9 |
| 20260506051232 | 66 | 268 | 1.0 | 2.0 | 0.00 | 0.00 | 0.00 | 57 | 1007.7 |
| 20260506050730 | 66 | 322 | 3.0 | 3.0 | 0.00 | 0.00 | 0.00 | 54 | 1007.9 |
| 20260506050227 | 66 | 23 | 0.0 | 1.0 | 0.00 | 0.00 | 0.00 | 56 | 1008.1 |
| 20260506044718 | 67 | 274 | 1.0 | 2.0 | 0.00 | 0.00 | 0.00 | 59 | 1007.8 |
| 20260506044215 | 66 | 321 | 1.0 | 1.0 | 0.00 | 0.00 | 0.00 | 59 | 1007.8 |
| 20260506043712 | 65 | 36 | 0.0 | 0.0 | 0.00 | 0.00 | 0.00 | 56 | 1007.8 |
| 20260506043210 | 65 | 46 | 0.0 | 0.0 | 0.00 | 0.00 | 0.00 | 58 | 1007.9 |
| 20260506042709 | 64 | 25 | 1.0 | 2.0 | 0.00 | 0.00 | 0.00 | 58 | 1007.9 |
| 20260506042207 | 65 | 40 | 0.0 | 0.0 | 0.00 | 0.00 | 0.00 | 58 | 1007.9 |
| 20260506041705 | 64 | 11 | 0.0 | 0.0 | 0.00 | 0.00 | 0.00 | 59 | 1007.8 |
| 20260506041201 | 64 | 206 | 1.0 | 1.0 | 0.00 | 0.00 | 0.00 | 62 | 1007.8 |
| 20260506040659 | 64 | 194 | 0.0 | 0.0 | 0.00 | 0.00 | 0.00 | 59 | 1007.7 |
| 20260506040155 | 64 | 42 | 0.0 | 0.0 | 0.00 | 0.00 | 0.00 | 57 | 1007.7 |
| 20260506035652 | 65 | 42 | 0.0 | 0.0 | 0.00 | 0.00 | 0.00 | 56 | 1007.7 |
| 20260506035149 | 65 | 328 | 0.0 | 1.0 | 0.00 | 0.00 | 0.00 | 56 | 1008.0 |
| 20260506034646 | 65 | 117 | 0.0 | 0.0 | 0.00 | 0.00 | 0.00 | 57 | 1007.9 |
| 20260506034143 | 66 | 53 | 0.0 | 0.0 | 0.00 | 0.00 | 0.00 | 57 | 1008.0 |
| 20260506033640 | 67 | 62 | 0.0 | 0.0 | 0.00 | 0.00 | 0.00 | 53 | 1008.0 |
| 20260506033137 | 66 | 9 | 2.0 | 3.0 | 0.00 | 0.00 | 0.00 | 55 | 1007.7 |
| 20260506032634 | 67 | 282 | 1.0 | 1.0 | 0.00 | 0.00 | 0.00 | 54 | 1007.6 |
| 20260506032131 | 66 | 306 | 3.0 | 3.0 | 0.00 | 0.00 | 0.00 | 53 | 1007.9 |
| 20260506031628 | 65 | 279 | 1.0 | 1.0 | 0.00 | 0.00 | 0.00 | 52 | 1007.6 |
| 20260506031125 | 66 | 262 | 1.0 | 1.0 | 0.00 | 0.00 | 0.00 | 55 | 1007.8 |
| 20260506030624 | 67 | 40 | 0.0 | 1.0 | 0.00 | 0.00 | 0.00 | 52 | 1007.6 |
| 20260506030121 | 67 | 44 | 0.0 | 0.0 | 0.00 | 0.00 | 0.00 | 52 | 1007.8 |
| 20260506025617 | 67 | 84 | 0.0 | 0.0 | 0.00 | 0.00 | 0.00 | 50 | 1007.7 |
| 20260506025113 | 68 | 62 | 0.0 | 0.0 | 0.00 | 0.00 | 0.00 | 51 | 1007.8 |
| 20260506024611 | 69 | 40 | 0.0 | 0.0 | 0.00 | 0.00 | 0.00 | 49 | 1007.7 |
| 20260506024107 | 69 | 281 | 6.0 | 8.0 | 0.00 | 0.00 | 0.00 | 49 | 1007.8 |
| 20260506023603 | 70 | 320 | 1.0 | 2.0 | 0.00 | 0.00 | 0.00 | 48 | 1007.8 |
| 20260506023101 | 70 | 202 | 2.0 | 2.0 | 0.00 | 0.00 | 0.00 | 48 | 1007.9 |
| 20260506022558 | 71 | 55 | 1.0 | 1.0 | 0.00 | 0.00 | 0.00 | 44 | 1007.8 |
| 20260506022055 | 70 | 357 | 0.0 | 1.0 | 0.00 | 0.00 | 0.00 | 45 | 1007.9 |
| 20260506021553 | 70 | 50 | 0.0 | 0.0 | 0.00 | 0.00 | 0.00 | 47 | 1007.9 |
| 20260506021050 | 71 | 322 | 3.0 | 3.0 | 0.00 | 0.00 | 0.00 | 45 | 1007.7 |
| 20260506020547 | 71 | 25 | 1.0 | 3.0 | 0.00 | 0.00 | 0.00 | 43 | 1007.7 |
| 20260506020045 | 70 | 53 | 0.0 | 0.0 | 0.00 | 0.00 | 0.00 | 47 | 1007.9 |
| 20260506015542 | 71 | 91 | 1.0 | 2.0 | 0.00 | 0.00 | 0.00 | 46 | 1007.7 |
| 20260506015039 | 71 | 12 | 3.0 | 3.0 | 0.00 | 0.00 | 0.00 | 44 | 1007.7 |
| 20260506014536 | 72 | 316 | 1.0 | 1.0 | 0.00 | 0.00 | 0.00 | 43 | 1007.4 |
| 20260506014032 | 72 | 134 | 1.0 | 1.0 | 0.00 | 0.00 | 0.00 | 44 | 1007.5 |
| 20260506013531 | 72 | 309 | 1.0 | 1.0 | 0.00 | 0.00 | 0.00 | 45 | 1007.5 |
| 20260506013027 | 72 | 306 | 3.0 | 3.0 | 0.00 | 0.00 | 0.00 | 43 | 1007.3 |
| 20260506012523 | 73 | 303 | 2.0 | 2.0 | 0.00 | 0.00 | 0.00 | 44 | 1007.3 |
| 20260506012020 | 73 | 200 | 5.0 | 7.0 | 0.00 | 0.00 | 0.00 | 41 | 1007.4 |
| 20260506011517 | 74 | 323 | 3.0 | 3.0 | 0.00 | 0.00 | 0.00 | 42 | 1007.1 |
| 20260506011013 | 73 | 15 | 2.0 | 3.0 | 0.00 | 0.00 | 0.00 | 43 | 1007.1 |
| 20260506010508 | 73 | 305 | 6.0 | 7.0 | 0.00 | 0.00 | 0.00 | 42 | 1006.9 |
| 20260506010004 | 73 | 16 | 1.0 | 1.0 | 0.00 | 0.00 | 0.00 | 44 | 1006.9 |
| 20260506005501 | 73 | 2 | 2.0 | 2.0 | 0.00 | 0.00 | 0.00 | 44 | 1007.0 |
| 20260506004956 | 73 | 53 | 1.0 | 2.0 | 0.00 | 0.00 | 0.00 | 43 | 1007.0 |
| 20260506004454 | 72 | 250 | 4.0 | 5.0 | 0.00 | 0.00 | 0.00 | 46 | 1006.8 |
| 20260506003950 | 73 | 83 | 0.0 | 0.0 | 0.00 | 0.00 | 0.00 | 45 | 1006.9 |
| 20260506003447 | 73 | 352 | 2.0 | 2.0 | 0.00 | 0.00 | 0.00 | 44 | 1006.9 |
| 20260506002943 | 73 | 20 | 1.0 | 2.0 | 0.00 | 0.00 | 0.00 | 43 | 1006.6 |
| 20260506002439 | 73 | 304 | 1.0 | 1.0 | 0.00 | 0.00 | 0.00 | 47 | 1006.9 |
| 20260506001934 | 73 | 330 | 4.0 | 5.0 | 0.00 | 0.00 | 0.00 | 44 | 1006.4 |
| 20260506001432 | 73 | 306 | 2.0 | 3.0 | 0.00 | 0.00 | 0.00 | 43 | 1006.4 |
| 20260506000929 | 73 | 306 | 2.0 | 3.0 | 0.00 | 0.00 | 0.00 | 43 | 1006.5 |
| 20260506000427 | 73 | 310 | 2.0 | 2.0 | 0.00 | 0.00 | 0.00 | 45 | 1006.3 |
| 20260505235923 | 74 | 46 | 0.0 | 1.0 | 0.00 | 0.00 | 0.00 | 40 | 1006.6 |
| 20260505235422 | 74 | 47 | 3.0 | 3.0 | 0.00 | 0.00 | 0.00 | 42 | 1006.3 |
| 20260505234918 | 74 | 41 | 0.0 | 1.0 | 0.00 | 0.00 | 0.00 | 42 | 1006.4 |
| 20260505234416 | 74 | 30 | 1.0 | 2.0 | 0.00 | 0.00 | 0.00 | 41 | 1006.4 |
| 20260505233912 | 75 | 247 | 5.0 | 6.0 | 0.00 | 0.00 | 0.00 | 43 | 1006.3 |
| 20260505233410 | 75 | 109 | 1.0 | 2.0 | 0.00 | 0.00 | 0.00 | 41 | 1006.3 |
| 20260505232907 | 75 | 55 | 1.0 | 1.0 | 0.00 | 0.00 | 0.00 | 39 | 1006.3 |
| 20260505232405 | 75 | 351 | 3.0 | 5.0 | 0.00 | 0.00 | 0.00 | 38 | 1006.4 |
| 20260505231901 | 76 | 58 | 3.0 | 3.0 | 0.00 | 0.00 | 0.00 | 37 | 1006.1 |
| 20260505231359 | 77 | 258 | 2.0 | 3.0 | 0.00 | 0.00 | 0.00 | 41 | 1006.3 |
| 20260505230857 | 76 | 297 | 9.0 | 15.0 | 0.00 | 0.00 | 0.00 | 37 | 1006.0 |
| 20260505230354 | 76 | 117 | 0.0 | 1.0 | 0.00 | 0.00 | 0.00 | 38 | 1006.1 |
| 20260505225851 | 76 | 347 | 3.0 | 3.0 | 0.00 | 0.00 | 0.00 | 38 | 1006.0 |
| 20260505225348 | 77 | 5 | 1.0 | 2.0 | 0.00 | 0.00 | 0.00 | 38 | 1006.1 |
| 20260505224843 | 77 | 315 | 6.0 | 9.0 | 0.00 | 0.00 | 0.00 | 37 | 1006.0 |
| 20260505224341 | 77 | 355 | 4.0 | 6.0 | 0.00 | 0.00 | 0.00 | 37 | 1006.0 |
| 20260505223838 | 77 | 291 | 4.0 | 5.0 | 0.00 | 0.00 | 0.00 | 38 | 1005.9 |
| 20260505223335 | 77 | 349 | 2.0 | 3.0 | 0.00 | 0.00 | 0.00 | 37 | 1005.9 |
| 20260505222830 | 77 | 324 | 4.0 | 5.0 | 0.00 | 0.00 | 0.00 | 36 | 1005.9 |
| 20260505222327 | 77 | 314 | 3.0 | 5.0 | 0.00 | 0.00 | 0.00 | 37 | 1005.5 |
| 20260505221824 | 77 | 354 | 4.0 | 7.0 | 0.00 | 0.00 | 0.00 | 36 | 1005.8 |
| 20260505221321 | 77 | 352 | 7.0 | 10.0 | 0.00 | 0.00 | 0.00 | 36 | 1005.7 |
| 20260505220818 | 77 | 58 | 3.0 | 3.0 | 0.00 | 0.00 | 0.00 | 37 | 1005.4 |
| 20260505220315 | 78 | 299 | 10.0 | 13.0 | 0.00 | 0.00 | 0.00 | 36 | 1005.5 |
| 20260505215813 | 78 | 287 | 7.0 | 9.0 | 0.00 | 0.00 | 0.00 | 35 | 1005.5 |
| 20260505215310 | 78 | 288 | 4.0 | 9.0 | 0.00 | 0.00 | 0.00 | 36 | 1005.6 |
| 20260505214808 | 78 | 289 | 3.0 | 5.0 | 0.00 | 0.00 | 0.00 | 35 | 1005.6 |
| 20260505214306 | 78 | 74 | 0.0 | 0.0 | 0.00 | 0.00 | 0.00 | 33 | 1005.7 |
| 20260505213802 | 78 | 351 | 1.0 | 1.0 | 0.00 | 0.00 | 0.00 | 32 | 1005.7 |
| 20260505213300 | 78 | 330 | 13.0 | 17.0 | 0.00 | 0.00 | 0.00 | 31 | 1005.5 |
| 20260505212755 | 78 | 307 | 4.0 | 5.0 | 0.00 | 0.00 | 0.00 | 31 | 1005.5 |
| 20260505212253 | 78 | 344 | 5.0 | 8.0 | 0.00 | 0.00 | 0.00 | 31 | 1005.3 |
| 20260505211749 | 78 | 328 | 7.0 | 9.0 | 0.00 | 0.00 | 0.00 | 31 | 1005.1 |
| 20260505211247 | 78 | 241 | 8.0 | 10.0 | 0.00 | 0.00 | 0.00 | 31 | 1005.2 |
| 20260505210743 | 78 | 34 | 4.0 | 6.0 | 0.00 | 0.00 | 0.00 | 31 | 1005.0 |
| 20260505210240 | 78 | 193 | 2.0 | 3.0 | 0.00 | 0.00 | 0.00 | 32 | 1005.4 |
| 20260505205738 | 78 | 337 | 6.0 | 8.0 | 0.00 | 0.00 | 0.00 | 32 | 1005.2 |
| 20260505205236 | 79 | 343 | 3.0 | 5.0 | 0.00 | 0.00 | 0.00 | 31 | 1005.0 |
| 20260505204732 | 79 | 296 | 8.0 | 13.0 | 0.00 | 0.00 | 0.00 | 30 | 1004.9 |
| 20260505204230 | 80 | 284 | 15.0 | 20.0 | 0.00 | 0.00 | 0.00 | 30 | 1005.1 |
| 20260505203727 | 81 | 343 | 4.0 | 6.0 | 0.00 | 0.00 | 0.00 | 29 | 1005.1 |
| 20260505203224 | 82 | 326 | 6.0 | 9.0 | 0.00 | 0.00 | 0.00 | 28 | 1005.3 |
| 20260505202719 | 82 | 298 | 9.0 | 10.0 | 0.00 | 0.00 | 0.00 | 28 | 1004.8 |
| 20260505202216 | 81 | 20 | 6.0 | 8.0 | 0.00 | 0.00 | 0.00 | 30 | 1004.8 |
| 20260505201712 | 81 | 317 | 11.0 | 15.0 | 0.00 | 0.00 | 0.00 | 29 | 1004.9 |
| 20260505201210 | 82 | 30 | 5.0 | 8.0 | 0.00 | 0.00 | 0.00 | 28 | 1005.3 |
| 20260505200708 | 81 | 233 | 4.0 | 10.0 | 0.00 | 0.00 | 0.00 | 29 | 1004.9 |
| 20260505200205 | 82 | 352 | 5.0 | 7.0 | 0.00 | 0.00 | 0.00 | 29 | 1005.0 |
| 20260505195701 | 82 | 339 | 8.0 | 10.0 | 0.00 | 0.00 | 0.00 | 29 | 1005.1 |
| 20260505195158 | 82 | 303 | 7.0 | 8.0 | 0.00 | 0.00 | 0.00 | 30 | 1005.0 |
| 20260505194655 | 81 | 296 | 10.0 | 15.0 | 0.00 | 0.00 | 0.00 | 31 | 1005.1 |
| 20260505194151 | 81 | 25 | 5.0 | 9.0 | 0.00 | 0.00 | 0.00 | 29 | 1005.2 |
| 20260505193648 | 81 | 293 | 7.0 | 9.0 | 0.00 | 0.00 | 0.00 | 31 | 1005.3 |
| 20260505193145 | 80 | 304 | 12.0 | 14.0 | 0.00 | 0.00 | 0.00 | 31 | 1005.5 |
| 20260505192644 | 80 | 285 | 5.0 | 7.0 | 0.00 | 0.00 | 0.00 | 30 | 1005.5 |
| 20260505192141 | 80 | 306 | 9.0 | 10.0 | 0.00 | 0.00 | 0.00 | 31 | 1006.0 |
| 20260505191639 | 80 | 297 | 11.0 | 16.0 | 0.00 | 0.00 | 0.00 | 31 | 1006.0 |
| 20260505191137 | 79 | 67 | 9.0 | 14.0 | 0.00 | 0.00 | 0.00 | 31 | 1005.8 |
| 20260505190632 | 80 | 332 | 7.0 | 10.0 | 0.00 | 0.00 | 0.00 | 32 | 1005.8 |
| 20260505190127 | 80 | 295 | 16.0 | 23.0 | 0.00 | 0.00 | 0.00 | 31 | 1005.6 |
| 20260505185624 | 80 | 177 | 7.0 | 10.0 | 0.00 | 0.00 | 0.00 | 33 | 1005.9 |
| 20260505185121 | 80 | 39 | 3.0 | 7.0 | 0.00 | 0.00 | 0.00 | 33 | 1005.8 |
| 20260505184617 | 80 | 88 | 3.0 | 6.0 | 0.00 | 0.00 | 0.00 | 34 | 1006.4 |
| 20260505184114 | 80 | 296 | 12.0 | 16.0 | 0.00 | 0.00 | 0.00 | 34 | 1006.4 |
| 20260505183611 | 80 | 281 | 7.0 | 17.0 | 0.00 | 0.00 | 0.00 | 33 | 1006.3 |
| 20260505183109 | 81 | 274 | 9.0 | 11.0 | 0.00 | 0.00 | 0.00 | 33 | 1006.1 |
| 20260505182605 | 81 | 308 | 4.0 | 7.0 | 0.00 | 0.00 | 0.00 | 33 | 1006.2 |
| 20260505182102 | 80 | 268 | 14.0 | 18.0 | 0.00 | 0.00 | 0.00 | 32 | 1006.5 |
| 20260505181558 | 80 | 299 | 9.0 | 11.0 | 0.00 | 0.00 | 0.00 | 32 | 1006.5 |
| 20260505181056 | 80 | 309 | 7.0 | 10.0 | 0.00 | 0.00 | 0.00 | 33 | 1006.5 |
| 20260505180551 | 80 | 344 | 9.0 | 15.0 | 0.00 | 0.00 | 0.00 | 31 | 1006.3 |
| 20260505180049 | 80 | 103 | 3.0 | 6.0 | 0.00 | 0.00 | 0.00 | 35 | 1006.4 |
| 20260505175549 | 80 | 267 | 6.0 | 8.0 | 0.00 | 0.00 | 0.00 | 35 | 1006.3 |
| 20260505175046 | 81 | 132 | 4.0 | 8.0 | 0.00 | 0.00 | 0.00 | 35 | 1006.5 |
| 20260505174543 | 81 | 349 | 2.0 | 3.0 | 0.00 | 0.00 | 0.00 | 35 | 1006.5 |
| 20260505174039 | 80 | 1 | 7.0 | 8.0 | 0.00 | 0.00 | 0.00 | 35 | 1006.6 |
| 20260505173536 | 79 | 279 | 11.0 | 15.0 | 0.00 | 0.00 | 0.00 | 36 | 1006.6 |
| 20260505173033 | 80 | 330 | 11.0 | 16.0 | 0.00 | 0.00 | 0.00 | 35 | 1006.3 |
| 20260505172531 | 80 | 322 | 2.0 | 3.0 | 0.00 | 0.00 | 0.00 | 35 | 1006.5 |
| 20260505172027 | 80 | 212 | 3.0 | 5.0 | 0.00 | 0.00 | 0.00 | 36 | 1006.5 |
| 20260505171522 | 79 | 7 | 2.0 | 2.0 | 0.00 | 0.00 | 0.00 | 38 | 1006.8 |
| 20260505171020 | 79 | 224 | 7.0 | 9.0 | 0.00 | 0.00 | 0.00 | 35 | 1006.6 |
| 20260505170516 | 80 | 285 | 7.0 | 11.0 | 0.00 | 0.00 | 0.00 | 37 | 1006.6 |
| 20260505170012 | 80 | 298 | 4.0 | 8.0 | 0.00 | 0.00 | 0.00 | 37 | 1006.8 |
| 20260505165502 | 79 | 276 | 11.0 | 13.0 | 0.00 | 0.00 | 0.00 | 38 | 1006.8 |
| 20260505164958 | 79 | 8 | 7.0 | 8.0 | 0.00 | 0.00 | 0.00 | 36 | 1007.1 |
| 20260505164454 | 79 | 36 | 6.0 | 11.0 | 0.00 | 0.00 | 0.00 | 38 | 1007.0 |
| 20260505163952 | 79 | 346 | 7.0 | 8.0 | 0.00 | 0.00 | 0.00 | 39 | 1006.9 |
| 20260505163451 | 80 | 46 | 7.0 | 15.0 | 0.00 | 0.00 | 0.00 | 37 | 1006.8 |
| 20260505162950 | 78 | 284 | 6.0 | 8.0 | 0.00 | 0.00 | 0.00 | 40 | 1007.1 |
| 20260505162445 | 78 | 135 | 6.0 | 9.0 | 0.00 | 0.00 | 0.00 | 40 | 1007.0 |
| 20260505161942 | 78 | 270 | 5.0 | 7.0 | 0.00 | 0.00 | 0.00 | 40 | 1007.3 |
| 20260505161439 | 79 | 325 | 8.0 | 11.0 | 0.00 | 0.00 | 0.00 | 41 | 1007.2 |
| 20260505160936 | 78 | 258 | 3.0 | 3.0 | 0.00 | 0.00 | 0.00 | 39 | 1007.4 |
| 20260505160435 | 78 | 333 | 7.0 | 8.0 | 0.00 | 0.00 | 0.00 | 41 | 1007.3 |
| 20260505152904 | 76 | 330 | 6.0 | 9.0 | 0.00 | 0.00 | 0.00 | 44 | 1007.7 |
| 20260505152401 | 75 | 324 | 6.0 | 7.0 | 0.00 | 0.00 | 0.00 | 45 | 1007.8 |
| 20260505151855 | 75 | 295 | 4.0 | 9.0 | 0.00 | 0.00 | 0.00 | 44 | 1008.0 |
| 20260505151353 | 75 | 50 | 5.0 | 7.0 | 0.00 | 0.00 | 0.00 | 44 | 1007.9 |
| 20260505150849 | 76 | 352 | 4.0 | 5.0 | 0.00 | 0.00 | 0.00 | 44 | 1007.7 |
| 20260505150346 | 74 | 263 | 3.0 | 5.0 | 0.00 | 0.00 | 0.00 | 45 | 1007.7 |
| 20260505140311 | 73 | 1 | 3.0 | 5.0 | 0.00 | 0.00 | 0.00 | 49 | 1008.4 |
| 20260505130234 | 69 | 310 | 4.0 | 5.0 | 0.00 | 0.00 | 0.00 | 55 | 1008.6 |
| 20260505124725 | 68 | 332 | 3.0 | 3.0 | 0.00 | 0.00 | 0.00 | 55 | 1008.4 |
| 20260505124222 | 67 | 324 | 4.0 | 6.0 | 0.00 | 0.00 | 0.00 | 55 | 1008.5 |
| 20260505123717 | 67 | 290 | 7.0 | 9.0 | 0.00 | 0.00 | 0.00 | 56 | 1008.6 |
| 20260505123214 | 67 | 347 | 3.0 | 5.0 | 0.00 | 0.00 | 0.00 | 56 | 1008.7 |
| 20260505122711 | 66 | 313 | 2.0 | 3.0 | 0.00 | 0.00 | 0.00 | 57 | 1008.8 |
| 20260505122208 | 66 | 328 | 7.0 | 8.0 | 0.00 | 0.00 | 0.00 | 58 | 1008.7 |
| 20260505121704 | 65 | 3 | 4.0 | 8.0 | 0.00 | 0.00 | 0.00 | 59 | 1008.6 |
| 20260505121201 | 64 | 16 | 0.0 | 0.0 | 0.00 | 0.00 | 0.00 | 63 | 1008.6 |
| 20260505120658 | 62 | 281 | 8.0 | 10.0 | 0.00 | 0.00 | 0.00 | 63 | 1008.6 |
| 20260505120154 | 60 | 204 | 2.0 | 3.0 | 0.00 | 0.00 | 0.00 | 71 | 1008.7 |
| 20260505115647 | 58 | 102 | 1.0 | 1.0 | 0.00 | 0.00 | 0.00 | 78 | 1008.5 |
| 20260505115145 | 57 | 61 | 2.0 | 2.0 | 0.00 | 0.00 | 0.00 | 77 | 1008.6 |
| 20260505114642 | 57 | 71 | 1.0 | 1.0 | 0.00 | 0.00 | 0.00 | 79 | 1008.7 |
| 20260505114138 | 56 | 83 | 0.0 | 0.0 | 0.00 | 0.00 | 0.00 | 81 | 1008.7 |
| 20260505113635 | 55 | 46 | 2.0 | 2.0 | 0.00 | 0.00 | 0.00 | 82 | 1008.6 |
| 20260505113131 | 55 | 83 | 0.0 | 0.0 | 0.00 | 0.00 | 0.00 | 83 | 1008.8 |
| 20260505112628 | 54 | 79 | 0.0 | 0.0 | 0.00 | 0.00 | 0.00 | 85 | 1008.7 |
| 20260505112126 | 53 | 78 | 0.0 | 0.0 | 0.00 | 0.00 | 0.00 | 86 | 1008.8 |
| 20260505111625 | 53 | 76 | 0.0 | 0.0 | 0.00 | 0.00 | 0.00 | 87 | 1008.8 |
| 20260505111121 | 52 | 73 | 0.0 | 0.0 | 0.00 | 0.00 | 0.00 | 88 | 1008.9 |
| 20260505110618 | 52 | 34 | 0.0 | 0.0 | 0.00 | 0.00 | 0.00 | 88 | 1008.7 |
| 20260505110115 | 52 | 73 | 0.0 | 0.0 | 0.00 | 0.00 | 0.00 | 89 | 1008.9 |
| 20260505102051 | 0 | 0.0 | 0.0 | 0.00 | 0.00 | 0.00 | 1008.7 | ||
| 20260505101549 | 0 | 0.0 | 0.0 | 0.00 | 0.00 | 0.00 | 1008.5 | ||
| 20260505101045 | 0 | 0.0 | 0.0 | 0.00 | 0.00 | 0.00 | 1008.6 | ||
| 20260505100542 | 0 | 0.0 | 0.0 | 0.00 | 0.00 | 0.00 | 1008.6 | ||
| 20260505100039 | 0 | 0.0 | 0.0 | 0.00 | 0.00 | 0.00 | 1008.3 | ||
| 20260505095535 | 0 | 0.0 | 0.0 | 0.00 | 0.00 | 0.00 | 1008.6 | ||
| 20260505095031 | 0 | 0.0 | 0.0 | 0.00 | 0.00 | 0.00 | 1008.4 | ||
| 20260505094528 | 0 | 0.0 | 0.0 | 0.00 | 0.00 | 0.00 | 1008.4 | ||
| 20260505094024 | 0 | 0.0 | 0.0 | 0.00 | 0.00 | 0.00 | 1008.2 | ||
| 20260505093521 | 0 | 0.0 | 0.0 | 0.00 | 0.00 | 0.00 | 1008.5 | ||
| 20260505093018 | 0 | 0.0 | 0.0 | 0.00 | 0.00 | 0.00 | 1008.7 | ||
| 20260505092516 | 0 | 0.0 | 0.0 | 0.00 | 0.00 | 0.00 | 1008.6 | ||
| 20260505092014 | 0 | 0.0 | 0.0 | 0.00 | 0.00 | 0.00 | 1008.8 | ||
| 20260505091511 | 0 | 0.0 | 0.0 | 0.00 | 0.00 | 0.00 | 1008.5 |